Regional Weather Roundup
Issued by NWS

Home | Current Version | Previous Version | Graphics & Text | Print | Product List | Glossary On
Versions: 1 2 3 4 5 6 7 8 9 10 11 12 13 14 15 16 17 18 19 20 21 22 23 24 25 26 27 28 29 30 31 32 33 34 35 36 37 38 39 40 41 42 43 44 45 46 47 48 49 50
000
ASUS43 KDTX 221910
RWRMI
MICHIGAN HOURLY REGIONAL WEATHER ROUNDUP
NATIONAL WEATHER SERVICE DETROIT/PONTIAC MI
200 PM EST SAT NOV 22 2014

NOTE: "FAIR" INDICATES FEW OR NO CLOUDS BELOW 12,000 FEET WITH NO
SIGNIFICANT WEATHER AND/OR OBSTRUCTION TO VISIBILITY.

MIZ047>049-052>055-059>063-066>070-074>076-081>083-222000-
SOUTHEAST LOWER MICHIGAN

CITY           SKY/WX    TMP DP  RH WIND       PRES   REMARKS
ADRIAN         LGT RAIN  39  37  92 SW8       30.01F FOG
ALMA           CLOUDY    37  37  99 SW8       29.91F FOG
ANN ARBOR      CLOUDY    39  35  86 SW10      29.99F
BAD AXE        CLOUDY    39  37  95 SW13      29.90F FOG
DETROIT CITY   CLOUDY    42  36  79 SW13      30.00F
DETROIT        CLOUDY    41  37  86 S15G21    30.01F
FLINT          CLOUDY    42  36  79 SW10      29.94F HAZE
GROSSE ILE     CLOUDY    43  39  87 SW7       29.99F
HILLSDALE      CLOUDY    42  42  99 SW7       29.98F FOG
HOWELL         CLOUDY    39  38  95 S9        29.94F FOG

CITY           SKY/WX    TMP DP  RH WIND       PRES   REMARKS
JACKSON        CLOUDY    42  40  92 SW9       29.96F FOG
LAMBERTVILLE   CLOUDY    46  39  76 SW12G18   30.02F
LANSING        CLOUDY    40  36  86 SW15      29.95F FOG
LAPEER         NOT AVBL
MASON          CLOUDY    40  38  93 SW7       29.95F FOG
MONROE         CLOUDY    45  39  81 SW13      29.99F
MT. CLEMENS    CLOUDY    40  39  97 SW14      29.95F FOG
PONTIAC        CLOUDY    37  34  89 SW13      29.95S FOG
PORT HOPE        N/A     39  35  86 VRB6G21   29.86F
PORT HURON     CLOUDY    37  36  93 SW8       29.96F FOG
TRI CITIES     LGT RAIN  39  36  89 SW18      29.90F FOG
YPSILANTI      CLOUDY    41  35  79 SW9       30.00F HAZE
$$
MIZ043>046-050>051-056>058-064>065-071>073-077>080-222000-
SOUTHWEST LOWER MICHIGAN

CITY           SKY/WX    TMP DP  RH WIND       PRES   REMARKS
BATTLE CREEK   FOG       40  37  89 SW14      29.95F VSB 1
BENTON HARBOR  CLOUDY    42  40  92 S8        29.93F FOG
BIG RAPIDS     FOG       37  37 100 S7        29.85F VSB 1/4
COLDWATER      CLOUDY    44  42  94 SW13G18   29.97F FOG
HOLLAND        CLOUDY    42  39  89 SW13      29.91F
GRAND RAPIDS   CLOUDY    38  36  92 S13       29.91F FOG
KALAMAZOO      FOG       39  37  92 S8        29.95F VSB 3/4
MARSHALL       CLOUDY    40  39  97 SW12G17   29.95F FOG
MUSKEGON       CLOUDY    43  38  82 SW18G29   29.90F HAZE
$$
MIZ016>042-222000-
NORTHERN LOWER MICHIGAN

CITY           SKY/WX    TMP DP  RH WIND       PRES   REMARKS
ALPENA         CLOUDY    39  34  82 SW10G20   29.78F
BEAVER ISLAND  CLOUDY    39  36  87 SW15G25   29.75S
BELLAIRE       CLOUDY    39  36  89 S8        29.80S
CADILLAC       SNOW      35  35  99 SW12      29.80F VSB<1/4
CHARLEVOIX     CLOUDY    38  37  94 SW7       29.80S FOG
FRANKFORT      CLOUDY    40  39  95 SW9G24    29.81F FOG
GAYLORD        CLOUDY    36  34  92 SW15      29.76F FOG
GRAYLING       CLOUDY    38  37  95 SW9       29.80F FOG
HARBOR SPRINGS CLOUDY    38  36  94 SW14G20   29.76S FOG
HOUGHTON LAKE  FOG       36  35  96 SW12G21   29.82F VSB 1/2
MANISTEE       CLOUDY    39  37  93 SW10      29.84F
OSCODA         CLOUDY    35  35  99 SW20G28   29.81F FOG
PELLSTON       CLOUDY    39  35  86 SW10G17   29.76F
TRAVERSE CITY  CLOUDY    40  36  86 SW8       29.78F
$$
MIZ007>008-015-222000-
EASTERN UPPER MICHIGAN

CITY           SKY/WX    TMP DP  RH WIND       PRES   REMARKS
KINROSS        CLOUDY    37  34  87 W14       29.72S
MACKINAC ISLAN CLOUDY    38  35  90 SW12      29.74S
NEWBERRY       CLOUDY    35  31  85 SW14      29.71S FOG
S. S. MARIE    CLOUDY    36  31  82 SW10      29.72F
$$
MIZ004>006-011>014-085-222000-
CENTRAL UPPER MICHIGAN

CITY           SKY/WX    TMP DP  RH WIND       PRES   REMARKS
MANISTIQUE     CLOUDY    36  32  87 SW9       29.73S FOG
ESCANABA       CLOUDY    37  28  70 SW14G20   29.73S
MENOMINEE      CLOUDY    37  32  81 W9        29.75F
SAWYER-GWINN   MOSUNNY   36  30  80 SW14      29.67F
$$
MIZ001>003-009>011-084-222000-
WESTERN UPPER MICHIGAN

CITY           SKY/WX    TMP DP  RH WIND       PRES   REMARKS
IRON MOUNTAIN  PTSUNNY   39  30  70 W7        29.70S
HOUGHTON       CLOUDY    36  29  75 W17       29.64F
COPPER HARBOR    N/A     39  31  72 VRB7G17   29.64F
IRONWOOD       PTSUNNY   37  32  81 SW8       29.64S
$$

ABBREVIATIONS USED IN REMARKS
   TC - TEMPERATURE IN CELSIUS
  WCI - WIND CHILL INDEX
   HX - HEAT INDEX
  VSB - VISIBILITY




USA.gov is the U.S. government's official web portal to all federal, state and local government web resources and services.